Honolulu, HI

4:44 PM HST on April 19, 2018 (GMT -1000)
Honolulu International

Weather History for PHNL - April, 2014

Change the Weather History Date:

Monday, April 28, 2014

  Actual Average Record
Temperature  
Mean Temperature 75 °F 77 °F  
Max Temperature 82 °F 83 °F 91 °F (1996)
Min Temperature 68 °F 70 °F 60 °F (1979)
Degree Days  
Heating Degree Days 0 0  
Month to date heating degree days 0 0  
Since 1 July heating degree days 0 0  
Cooling Degree Days 10 11  
Month to date cooling degree days 343 308  
Year to date cooling degree days 1171 1083  
Growing Degree Days 24 (Base 50)    
Moisture  
Dew Point 64 °F    
Average Humidity 69    
Maximum Humidity 84    
Minimum Humidity 54    
Precipitation  
Precipitation 0.07 in 0.02 in 1.35 in (2017)
Month to date precipitation 0.33 0.60  
Year to date precipitation 6.62 6.92  
Snow  
Snow 0.00 in - - ()
Month to date snowfall 0.0  
Since 1 July snowfall 0.0  
Snow Depth 0.00 in    
Sea Level Pressure  
Sea Level Pressure 29.99 in    
Wind  
Wind Speed 5 mph (NW)    
Max Wind Speed 15 mph    
Max Gust Speed 20 mph    
Visibility 10 miles    
Events      
T = Trace of Precipitation, MM = Missing Value Source: NWS Daily Summary

Daily Weather History Graph

Daily Weather History Graph

Search for Another Location

Airport or City:

Astronomy

Apr. 28, 2014 Rise Set
Actual Time 6:02 AM HST 6:55 PM HST
Civil Twilight 5:39 AM HST 7:19 PM HST
Nautical Twilight 5:12 AM HST 7:46 PM HST
Astronomical Twilight 4:44 AM HST 8:14 PM HST
Moon 5:42 AM HST (4/28) 6:47 PM HST (4/28)
Length of Visible Light 13h 39m
Length of Day
12h 53m
Waning Crescent, 0% of the Moon is Illuminated
Apr 28
Waning Crescent
Apr 28
New
May 6
First Quarter
May 14
Full
May 21
Last Quarter

Hourly Weather History & Observations

Time (HST) Temp. Heat Index Dew Point Humidity Pressure Visibility Wind Dir Wind Speed Gust Speed Precip Events Conditions
12:53 AM 72.0 °F - 64.0 °F 76% 30.01 in 10.0 mi North 3.5 mph - N/A   Partly Cloudy
1:53 AM 70.0 °F - 64.0 °F 81% 30.00 in 10.0 mi North 3.5 mph - N/A   Partly Cloudy
2:53 AM 69.1 °F - 63.0 °F 81% 29.99 in 10.0 mi Calm Calm - N/A   Partly Cloudy
3:53 AM 69.1 °F - 63.0 °F 81% 29.98 in 10.0 mi NNW 5.8 mph - N/A   Partly Cloudy
4:53 AM 68.0 °F - 63.0 °F 84% 29.98 in 10.0 mi Calm Calm - N/A   Partly Cloudy
5:53 AM 68.0 °F - 63.0 °F 84% 29.99 in 10.0 mi NNW 4.6 mph - N/A   Partly Cloudy
6:53 AM 70.0 °F - 63.0 °F 78% 30.00 in 10.0 mi NW 6.9 mph - N/A   Partly Cloudy
7:53 AM 75.0 °F - 63.0 °F 66% 30.01 in 10.0 mi NW 6.9 mph - N/A   Scattered Clouds
8:53 AM 78.1 °F - 63.0 °F 60% 30.01 in 10.0 mi NNW 3.5 mph - N/A   Scattered Clouds
9:53 AM 81.0 °F 81.9 °F 62.1 °F 52% 30.02 in 10.0 mi Variable 4.6 mph - N/A   Scattered Clouds
10:53 AM 79.0 °F - 64.9 °F 62% 30.01 in 10.0 mi South 8.1 mph - N/A   Scattered Clouds
11:53 AM 81.0 °F 83.0 °F 66.0 °F 60% 30.00 in 10.0 mi SW 11.5 mph - N/A   Scattered Clouds
12:53 PM 82.0 °F 84.1 °F 66.0 °F 58% 29.99 in 10.0 mi WSW 15.0 mph - N/A   Scattered Clouds
1:53 PM 79.0 °F - 64.9 °F 62% 29.97 in 10.0 mi SW 9.2 mph - N/A   Mostly Cloudy
2:53 PM 77.0 °F - 69.1 °F 76% 29.96 in 10.0 mi Calm Calm - 0.07 in   Mostly Cloudy
3:53 PM 78.1 °F - 66.9 °F 68% 29.94 in 10.0 mi SW 9.2 mph - N/A   Scattered Clouds
4:53 PM 78.1 °F - 63.0 °F 60% 29.95 in 10.0 mi NE 11.5 mph 16.1 mph N/A   Mostly Cloudy
5:53 PM 77.0 °F - 62.1 °F 60% 29.95 in 10.0 mi NE 9.2 mph - N/A   Scattered Clouds
6:53 PM 75.0 °F - 62.1 °F 64% 29.97 in 10.0 mi NNE 8.1 mph - N/A   Partly Cloudy
7:53 PM 73.9 °F - 62.1 °F 66% 30.00 in 10.0 mi NNW 5.8 mph - N/A   Partly Cloudy
8:53 PM 73.0 °F - 63.0 °F 71% 30.02 in 10.0 mi Variable 6.9 mph - N/A   Scattered Clouds
9:53 PM 72.0 °F - 63.0 °F 73% 30.03 in 10.0 mi NW 8.1 mph - N/A   Partly Cloudy
10:53 PM 72.0 °F - 62.1 °F 71% 30.03 in 10.0 mi NW 6.9 mph - N/A   Partly Cloudy
11:53 PM 71.1 °F - 62.1 °F 73% 30.03 in 10.0 mi NW 5.8 mph - N/A   Partly Cloudy